Flag for U.S.A. Weather past 2 weeks in Pocatello, Idaho, U.S.A.

Now
78 °F

Thundershowers. Scattered clouds.


Feels Like: 79 °F
Forecast: 56 / 83 °F
Wind: 16 mph from Southwest

Location: Pocatello Regional Airport

Current Time: Aug 20, 2014 at 4:26:11 PM

Latest Report: Aug 20, 2014 at 3:53 PM


Visibility: 10 mi

Pressure: 29.78 "Hg

Humidity: 37%

Dew point: 50 °F

Location of PocatelloLocation

Historic Weather in Pocatello — Graph

°F

Pocatello temperature yesterday

Maximum temperature yesterday: 85 °F (at 4:53 PM)
Minimum temperature yesterday: 53 °F (at 1:53 AM)
Average temperature yesterday: 68 °F

Past Weeks' High & Low Weather Summary

 TemperatureHumidityPressure
High93 °F (Aug 11, 1:53 PM)100% (Aug 5, 9:53 PM)30.19 "Hg (Aug 5, 9:53 PM)
Low50 °F (Aug 16, 5:53 AM)14% (Aug 17, 4:53 PM)29.68 "Hg (Aug 19, 5:53 PM)
Average69 °F62%29.98 "Hg
* Reported Aug 5 2:53 PM — Aug 20 2:53 PM, Pocatello, Weather by CustomWeather, © 2014

Note: Actual official high and low records may vary slightly from our data, if they occured in-between our weather recording intervals... More about our weather records

Advertising

Pocatello weather history for previous 24 hours

 ConditionsComfort  
Time TempWeatherWind HumidityBarometerVisibility
2:53 PM
Aug 20
80 °FThundershowers. Scattered clouds.No wind29%29.77 "Hg10 mi
1:53 PM81 °FScattered clouds.12 mph33%29.80 "Hg10 mi
12:53 PM78 °FScattered clouds.6 mph40%29.81 "Hg10 mi
11:53 AM76 °FScattered clouds.No wind48%29.84 "Hg10 mi
10:53 AM72 °FPassing clouds.5 mph57%29.86 "Hg10 mi
9:53 AM68 °FPassing clouds.5 mph61%29.85 "Hg10 mi
8:53 AM63 °FSunny.3 mph73%29.85 "Hg10 mi
7:53 AM56 °FClear.5 mph93%29.84 "Hg10 mi
6:53 AM52 °FClear.No wind100%29.82 "Hg10 mi
5:53 AM52 °FClear.5 mph100%29.80 "Hg10 mi
4:53 AM54 °FPassing clouds.6 mph97%29.78 "Hg10 mi
3:53 AM53 °FClear.No wind100%29.78 "Hg10 mi
2:53 AM57 °FClear.No wind96%29.77 "Hg10 mi
1:53 AM57 °FClear.3 mph93%29.76 "Hg10 mi
12:53 AM61 °FPassing clouds.8 mph81%29.78 "Hg10 mi
11:53 PM
Aug 19
60 °FPassing clouds.5 mph86%29.78 "Hg10 mi
10:53 PM59 °FPassing clouds.9 mph87%29.82 "Hg10 mi
9:53 PM63 °FThundershowers. Overcast.14 mph70%29.86 "Hg10 mi
8:53 PM65 °FMostly cloudy.5 mph56%29.80 "Hg10 mi
7:53 PM72 °FCloudy.8 mph38%29.77 "Hg10 mi
6:53 PM80 °FScattered clouds.17 mph30%29.70 "Hg10 mi
5:53 PM83 °FPassing clouds.21 mph26%29.68 "Hg10 mi
4:53 PM85 °FPassing clouds.20 mph27%29.69 "Hg10 mi
Weather by CustomWeather, © 2014

See weather overviewHow to use our weather pages